Regional Weather Roundup
Issued by NWS Upton, NY

Current Version | Previous Version | Graphics & Text | Print | Product List | Glossary Off
Versions: 1 2 3 4 5 6 7 8 9 10 11 12 13 14 15 16 17 18 19 20 21 22 23 24 25 26 27 28 29 30 31 32 33 34 35 36 37 38 39 40 41 42 43 44 45 46 47 48 49 50

000
ASUS41 KOKX 292204
RWROKX

REGIONAL WEATHER ROUNDUP
NATIONAL WEATHER SERVICE NEW YORK NY
600 PM EDT FRI APR 29 2016

NOTE: "FAIR" INDICATES FEW OR NO CLOUDS BELOW 12,000 FEET WITH NO
SIGNIFICANT WEATHER AND/OR OBSTRUCTIONS TO VISIBILITY.

NYZ071-072-176-178-NJZ106-104-292300-
NEW YORK CITY METRO AREA


CITY           SKY/WX    TMP DP  RH WIND       PRES   REMARKS
CENTRAL PARK   CLOUDY    52  35  52 VRB7      30.11R
LAGUARDIA APRT CLOUDY    53  40  61 NE10      30.08S
KENNEDY INTL   CLOUDY    52  33  48 E12       30.10S
NEWARK/LIBERTY CLOUDY    53  30  41 SE7       30.07F
BRNX BOT. GARD   N/A     50  37  62 SE5       30.08F
TETERBORO      CLOUDY    53  34  48 E8        30.07F
$$

NYZ177-179-078>081-292300-
LONG ISLAND NEW YORK

CITY           SKY/WX    TMP DP  RH WIND       PRES   REMARKS
FARMINGDALE    CLOUDY    51  30  44 SE7       30.10R
ISLIP          CLOUDY    50  32  50 SE12      30.09R
SHIRLEY        CLOUDY    50  34  54 VRB5      30.11R
RIVERHEAD        N/A     50  36  57 SE2       30.10S
WESTHAMPTON    CLOUDY    45  35  68 E12       30.12R
EAST HAMPTON   FAIR      47  35  62 E12G17    30.11S
MONTAUK POINT    N/A     47  38  71 VRB5      30.13S
$$

NYZ052-065-067-292300-
HUDSON VALLEY

CITY           SKY/WX    TMP DP  RH WIND       PRES   REMARKS
WHITE PLAINS   CLOUDY    51  33  50 E8        30.07F
NEWBURGH       CLOUDY    55  34  44 SE9       30.06F
MONTGOMERY     CLOUDY    52  35  52 SW12      30.06R
POUGHKEEPSIE   CLOUDY    58  30  34 SE6       30.05F
ALBANY         CLOUDY    56  34  43 SW8       30.06S
$$

NJZ001-105-106-008-010-013-015-019>022-104-292300-
NEW JERSEY

CITY           SKY/WX    TMP DP  RH WIND       PRES   REMARKS
NEWARK/LIBERTY CLOUDY    53  30  41 SE7       30.07F
TETERBORO      CLOUDY    53  34  48 E8        30.07F
CALDWELL       CLOUDY    53  33  46 E7        30.08S
MORRISTOWN     CLOUDY    52  28  40 S8        30.08F
SOMERVILLE     CLOUDY    48  40  73 SE6       30.07S
SUSSEX         CLOUDY    52  32  46 CALM      30.07S
ANDOVER          N/A     49  38  65 CALM      30.06S
TRENTON        CLOUDY    49  39  68 NE7       30.08S
MILLVILLE      CLOUDY    50  46  86 NE9       30.05S
ATLANTIC CITY  CLOUDY    49  46  90 NE12      30.06S
WRIGHTSTOWN    CLOUDY    46  45  93 NE8       30.06S
TOMS RIVER     CLOUDY    46  39  76 NE9       30.09S
BELMAR         LGT RAIN  46  40  79 E9        30.09S
$$

PAZ047>061-062-071-292300-
EASTERN PENNSYLVANIA

CITY           SKY/WX    TMP DP  RH WIND       PRES   REMARKS
PHILADELPHIA   CLOUDY    50  43  77 E12       30.07F
ALLENTOWN      CLOUDY    49  41  74 SE6       30.07S
SCRANTON       LGT RAIN  48  42  80 CALM      30.03S
$$

CTZ002-004>006-009-010-012-RIZ004-006-007-MAZ004-011-015-292300-
SOUTHERN NEW ENGLAND
 IN CT

CITY           SKY/WX    TMP DP  RH WIND       PRES   REMARKS
BRADLEY INTL   CLOUDY    58  36  43 S6        30.05F
HARTFORD       CLOUDY    59  37  44 S5        30.06F
DANBURY        CLOUDY    52  32  46 SE8       30.09S
WTRBRY/OXFORD  CLOUDY    50  32  50 S9        30.10R
BRIDGEPORT     CLOUDY    50  39  66 E13       30.11R
MERIDEN        CLOUDY    53  35  50 S10       30.09S
NEW HAVEN      CLOUDY    48  35  60 E12       30.11R
CHESTER        MOCLDY    48  27  43 SE9       30.10S
GROTON         PTSUNNY   47  41  80 E16       30.11S
WILLIMANTIC    CLOUDY    58  31  35 SW7       30.08S

 IN RI

CITY           SKY/WX    TMP DP  RH WIND       PRES   REMARKS
PROVIDENCE     CLOUDY    49  35  58 S9        30.11F
BLOCK ISLAND   PTSUNNY   47  39  74 E9        30.13R
WESTERLY       CLOUDY    48  34  58 E12       30.13R

 IN MA

CITY           SKY/WX    TMP DP  RH WIND       PRES   REMARKS
BOSTON         MOSUNNY   48  37  65 E20       30.13F
WORCESTER      PTSUNNY   55  29  36 E7        30.05F
WESTFIELD      PTSUNNY   58  34  40 SW3       30.05F
PROVINCETOWN   SUNNY     48  28  46 SE8       30.16R
NANTUCKET      CLOUDY    47  32  56 E10       30.15R
$$

ANZ330-335-338-340-345-350-353-355-292300-
COASTAL MARINE OBSERVATIONS


STATION/POSITION TIME  SKY/WX   TEMP    WIND        PRES    VSBY  WAVE
                                AIR SEA DIR/SP/G                  HT/PER
                 (UTC)          (F)     (DEG/KT/KT) (MB)    (MI)  (FT/S)
NY HARB ENTRANCE 2050            48 51   70/ 16/ 19 1018.1          6/ 7
20S FIRE ISLAND  2050            47 49   70/ 17/ 19 1018.0          7/ 7
GREAT SOUTH BAY  2100            49 57  100/ 17/ 21   N/A
23 SSW MONTAUK P 2150            45 47   90/ 16/ 17 1018.9          6/ 6
15 E BARNEGAT LI 2122               51                N/A           7/ 7
HUDSON CANYON    2050            50 51              1016.7          7/ 8
KINGS POINT      2100            53 53              1018.5
EXECUTION ROCKS  NOT AVBL
CENTRAL LI SOUND 2100            47     100/ 14/ 16   N/A           2/ 3
EASTERN LI SOUND 2100            48 48   90/ 12/ 16   N/A
ROBBINS REEF     2100            51     120/ 13/ 16 1018.2
$$


>>>>>>>>>>>>>>>>>>>>>>>>>>>> KEY <<<<<<<<<<<<<<<<<<<<<<<<<<<
>                                                          <
>     SKY/WX - SKY CONDITION/PRESENT WEATHER               <
>     TMP    - TEMPERATURE IN FAHRENHEIT                   <
>     DP     - DEWPOINT IN FAHRENHEIT                      <
>     RH     - RELATIVE HUMIDITY IN PERCENT                <
>     WIND   - DIRECTION AND SPEED IN MPH                  <
>     PRES   - MEAN SEA LEVEL PRESSURE IN INCHES OF HG     <
>     WCI    - WIND CHILL INDEX                            <
>     VSB    - VISIBILITY IN MILES                         <
>     HX     - HEAT INDEX                                  <
>     TC     - TEMPERATURE IN CELSIUS                      <
>     VRB    - VARIABLE WIND DIRECTION                     <
>                                                          <
>>>>>>>>>>>>>>>>>>>>>>>>>>>> KEY <<<<<<<<<<<<<<<<<<<<<<<<<<<





USA.gov is the U.S. government's official web portal to all federal, state and local government web resources and services.